Caldwell, NJ

8:44 AM EDT on August 28, 2016 (GMT -0400)
Essex County

Weather History for KCDW - December, 2012

Change the Weather History Date:

Wednesday, December 5, 2012

  Actual Average Record
Temperature  
Mean Temperature 45 °F -  
Max Temperature 55 °F 44 °F 69 °F (1982)
Min Temperature 35 °F 26 °F 12 °F (1976)
Degree Days  
Heating Degree Days 20    
Moisture  
Dew Point 36 °F    
Average Humidity 69    
Maximum Humidity 100    
Minimum Humidity 40    
Precipitation  
Precipitation 0.00 in - - ()
Sea Level Pressure  
Sea Level Pressure 30.05 in    
Wind  
Wind Speed 4 mph (NW)    
Max Wind Speed 17 mph    
Max Gust Speed 32 mph    
Visibility 8 miles    
Events Rain    
Averages and records for this station are not official NWS values.
T = Trace of Precipitation, MM = Missing Value Source: NWS Daily Summary

Daily Weather History Graph

Daily Weather History Graph

Search for Another Location

Airport or City:

Trip Planner

Search our weather history database for the weather conditions in past years. The results will help you decide how hot, cold, wet, or windy it might be!

Date:

Astronomy

Dec. 05, 2012 Rise Set
Actual Time 7:06 AM EST 4:29 PM EST
Civil Twilight 6:35 AM EST 4:59 PM EST
Nautical Twilight 6:01 AM EST 5:34 PM EST
Astronomical Twilight 5:28 AM EST 6:07 PM EST
Moon 11:18 PM EST (12/5) 11:27 AM EST (12/5)
Length of Visible Light 10h 23m
Length of Day
9h 22m
Waning Gibbous, 60% of the Moon is Illuminated
Dec 5
Waning Gibbous
Dec 6
Last Quarter
Dec 13
New
Dec 20
First Quarter
Dec 28
Full

Hourly Weather History & Observations

Time (EST) Temp. Windchill Dew Point Humidity Pressure Visibility Wind Dir Wind Speed Gust Speed Precip Events Conditions
12:01 AM 44.6 °F - 44.6 °F 100% 29.97 in 2.0 mi Calm Calm - N/A   Mostly Cloudy
12:28 AM 46.4 °F - 46.4 °F 100% 29.95 in 3.0 mi Calm Calm - N/A   Overcast
12:42 AM 46.4 °F - 44.6 °F 93% 29.95 in 2.5 mi Calm Calm - 0.00 in Rain Light Rain
12:53 AM 46.9 °F - 46.0 °F 97% 29.96 in 2.5 mi Calm Calm - 0.00 in   Overcast
1:06 AM 48.2 °F - 46.4 °F 93% 29.94 in 3.0 mi Calm Calm - 0.00 in Rain Light Rain
1:45 AM 48.2 °F - 46.4 °F 93% 29.93 in 2.5 mi Calm Calm - 0.00 in Rain Light Rain
1:53 AM 48.0 °F - 46.0 °F 93% 29.95 in 3.0 mi Calm Calm - 0.00 in Rain Light Rain
2:51 AM 48.2 °F - 48.2 °F 100% 29.92 in 4.0 mi Calm Calm - 0.00 in Rain Light Rain
2:53 AM 48.9 °F - 48.0 °F 97% 29.94 in 4.0 mi Calm Calm - 0.00 in Rain Light Rain
3:48 AM 51.8 °F - 50.0 °F 94% 29.94 in 5.0 mi Calm Calm - 0.00 in   Overcast
3:53 AM 52.0 °F - 50.0 °F 93% 29.96 in 6.0 mi Calm Calm - 0.00 in   Overcast
4:15 AM 55.4 °F - 46.4 °F 72% 29.95 in 10.0 mi NW 11.5 mph 18.4 mph 0.00 in Rain Light Rain
4:53 AM 54.0 °F - 46.0 °F 75% 29.97 in 10.0 mi NW 9.2 mph - 0.00 in   Overcast
5:53 AM 53.1 °F - 45.0 °F 74% 29.99 in 10.0 mi WNW 4.6 mph - 0.00 in   Overcast
6:53 AM 52.0 °F - 42.1 °F 69% 30.03 in 10.0 mi NW 6.9 mph - N/A   Mostly Cloudy
7:53 AM 51.1 °F - 39.0 °F 63% 30.05 in 10.0 mi WNW 8.1 mph - N/A   Clear
9:53 AM 50.0 °F - 35.1 °F 57% 30.08 in 10.0 mi NW 9.2 mph - N/A   Clear
10:53 AM 52.0 °F - 33.1 °F 49% 30.06 in 10.0 mi NW 11.5 mph 18.4 mph N/A   Clear
11:53 AM 50.0 °F - 32.0 °F 50% 30.06 in 10.0 mi Variable 6.9 mph 19.6 mph N/A   Clear
12:53 PM 53.1 °F - 30.9 °F 43% 30.04 in 10.0 mi NNW 17.3 mph 21.9 mph N/A   Clear
1:53 PM 53.1 °F - 28.9 °F 40% 30.04 in 10.0 mi NNW 15.0 mph 23.0 mph N/A   Clear
2:53 PM 50.0 °F - 28.0 °F 43% 30.06 in 10.0 mi NW 10.4 mph 25.3 mph N/A   Partly Cloudy
3:53 PM 46.9 °F - 30.9 °F 54% 30.10 in 10.0 mi NNW 12.7 mph 24.2 mph N/A   Mostly Cloudy
4:53 PM 45.0 °F 38.9 °F 28.0 °F 52% 30.13 in 10.0 mi NNW 12.7 mph 24.2 mph N/A   Overcast
5:53 PM 42.1 °F 34.9 °F 21.0 °F 43% 30.19 in 10.0 mi NW 13.8 mph 32.2 mph N/A   Mostly Cloudy
6:53 PM 39.0 °F 32.8 °F 19.9 °F 46% 30.22 in 10.0 mi North 9.2 mph 17.3 mph N/A   Clear
7:53 PM 37.9 °F 30.0 °F 19.9 °F 48% 30.22 in 10.0 mi NW 12.7 mph 23.0 mph N/A   Partly Cloudy
8:53 PM 37.0 °F 28.9 °F 21.0 °F 52% 30.23 in 10.0 mi NNW 12.7 mph 21.9 mph N/A   Partly Cloudy
9:53 PM 35.1 °F 30.1 °F 17.1 °F 48% 30.26 in 10.0 mi Variable 5.8 mph 21.9 mph N/A   Partly Cloudy
10:53 PM 35.1 °F 27.4 °F 18.0 °F 50% 30.27 in 10.0 mi NW 10.4 mph 19.6 mph N/A   Overcast
11:53 PM 35.1 °F 28.6 °F 19.0 °F 52% 30.27 in 10.0 mi NW 8.1 mph 18.4 mph N/A   Overcast